Date String (YYYY-MM-DD hh:mm:ss) UTC,Instrument flags,Ambient pressure (hPa),Sample flow (lpm),Bypass flow (lpm),Sample temperature (°C),Ambient temperature (°C),ASC tube jacket temperature (°C),LED temperature (°C),Box temperature (°C),Sample RH (%),Span deviation,Mass concentration (μg/m³),Mass concentration (μg/m³),Mass concentration (μg/m³)
DateTimeUTC,F1_M11,P_M11,Q1_M11,Q2_M11,T1_M11,T2_M11,T3_M11,T4_M11,T5_M11,U1_M11,ZSPAN_M11,X0_M11,X2_M11,X1_M11
2021-11-01 16:00:00,,0832.7,5.01,0.00,23.2,22.4,00.0,32.3,25.0,17.7,0000.0,0002.93,0001.85,0001.68
2021-11-01 16:01:00,,0832.8,5.00,0.00,23.2,22.4,00.0,32.3,25.0,17.7,0000.0,0002.81,0001.79,0001.65
2021-11-01 16:02:00,,0832.8,5.00,0.00,23.2,22.4,00.0,32.3,25.0,17.7,0000.0,0002.77,0001.78,0001.63
2021-11-01 16:03:00,,0832.7,5.03,0.00,23.2,22.4,00.0,32.3,25.0,17.7,0000.0,0002.73,0001.74,0001.59
2021-11-01 16:04:00,,0832.8,4.99,0.00,23.2,22.4,00.0,32.3,25.1,17.6,0000.0,0002.77,0001.73,0001.56
2021-11-01 16:05:00,,0832.7,5.00,0.00,23.2,22.4,00.0,32.3,25.0,17.6,0000.0,0002.86,0001.73,0001.54
2021-11-01 16:06:00,,0832.8,5.01,0.00,23.2,22.4,00.0,32.3,25.0,17.6,0000.0,0002.91,0001.74,0001.53
2021-11-01 16:07:00,,0832.8,4.98,0.00,23.2,22.4,00.0,32.3,25.0,17.6,0000.0,0002.95,0001.75,0001.52
2021-11-01 16:08:00,,0832.8,5.01,0.00,23.2,22.4,00.0,32.3,25.0,17.6,0000.0,0002.93,0001.73,0001.51
2021-11-01 16:09:00,,0832.8,4.98,0.00,23.2,22.4,00.0,32.3,25.0,17.7,0000.0,0002.48,0001.67,0001.50
2021-11-01 16:10:00,,0832.8,5.01,0.00,23.2,22.4,00.0,32.3,25.0,17.7,0000.0,0002.97,0001.66,0001.49
2021-11-01 16:11:00,,0832.8,5.01,0.00,23.2,22.4,00.0,32.3,25.0,17.8,0000.0,0003.01,0001.68,0001.50
2021-11-01 16:12:00,,0832.9,4.99,0.00,23.2,22.4,00.0,32.3,25.0,17.8,0000.0,0003.05,0001.70,0001.50
2021-11-01 16:13:00,,0832.8,5.01,0.00,23.2,22.4,00.0,32.3,25.0,17.8,0000.0,0002.99,0001.67,0001.50
2021-11-01 16:14:00,,0832.8,5.00,0.00,23.2,22.4,00.0,32.3,25.0,17.9,0000.0,0003.01,0001.68,0001.51
2021-11-01 16:15:00,,0832.9,4.99,0.00,23.2,22.4,00.0,32.3,25.0,17.9,0000.0,0003.10,0001.70,0001.51
2021-11-01 16:16:00,,0833.0,5.01,0.00,23.2,22.4,00.0,32.3,25.0,17.9,0000.0,0003.22,0001.70,0001.51
2021-11-01 16:17:00,,0833.0,4.99,0.00,23.2,22.4,00.0,32.2,25.0,17.9,0000.0,0003.60,0001.73,0001.52
2021-11-01 16:18:00,,0832.9,5.01,0.00,23.2,22.4,00.0,32.3,25.0,17.9,0000.0,0003.59,0001.74,0001.55
2021-11-01 16:19:00,,0832.8,5.00,0.00,23.2,22.4,00.0,32.2,25.0,17.9,0000.0,0003.59,0001.76,0001.57
2021-11-01 16:20:00,,0832.8,5.00,0.00,23.2,22.4,00.0,32.2,25.0,18.0,0000.0,0003.86,0001.78,0001.60
2021-11-01 16:21:00,,0832.8,5.00,0.00,23.2,22.4,00.0,32.2,25.0,18.0,0000.0,0003.27,0001.81,0001.63
2021-11-01 16:22:00,,0832.7,4.99,0.00,23.2,22.4,00.0,32.2,25.0,18.1,0000.0,0003.26,0001.83,0001.66
2021-11-01 16:23:00,,0832.8,5.01,0.00,23.2,22.4,00.0,32.2,25.0,18.1,0000.0,0003.31,0001.82,0001.67
2021-11-01 16:24:00,,0832.7,5.00,0.00,23.2,22.4,00.0,32.2,25.0,18.2,0000.0,0003.88,0001.83,0001.69
2021-11-01 16:25:00,,0832.6,5.00,0.00,23.2,22.4,00.0,32.2,25.0,18.3,0000.0,0003.87,0001.84,0001.71
2021-11-01 16:26:00,,0832.6,4.99,0.00,23.2,22.4,00.0,32.2,25.0,18.3,0000.0,0003.78,0001.84,0001.73
2021-11-01 16:27:00,,0832.6,5.02,0.00,23.2,22.3,00.0,32.2,25.0,18.4,0000.0,0003.58,0001.82,0001.76
2021-11-01 16:28:00,,0832.5,4.99,0.00,23.2,22.3,00.0,32.2,25.0,18.5,0000.0,0003.13,0001.80,0001.77
2021-11-01 16:29:00,,0832.3,4.99,0.00,23.2,22.3,00.0,32.2,25.0,18.6,0000.0,0003.19,0001.81,0001.77
2021-11-01 16:30:00,,0832.4,5.01,0.00,23.2,22.3,00.0,32.2,24.9,18.6,0000.0,0003.23,0001.83,0001.78
2021-11-01 16:31:00,,0832.5,5.00,0.00,23.1,22.3,00.0,32.2,24.9,18.7,0000.0,0003.13,0001.84,0001.79
2021-11-01 16:32:00,,0832.6,4.99,0.00,23.1,22.3,00.0,32.2,24.9,18.8,0000.0,0004.00,0001.84,0001.78
2021-11-01 16:33:00,,0832.5,5.01,0.00,23.1,22.3,00.0,32.2,24.9,18.8,0000.0,0004.11,0001.84,0001.78
2021-11-01 16:34:00,,0832.3,5.00,0.00,23.1,22.3,00.0,32.2,24.9,18.9,0000.0,0004.67,0001.85,0001.78
2021-11-01 16:35:00,,0832.1,5.01,0.00,23.1,22.3,00.0,32.2,24.9,19.0,0000.0,0004.12,0001.87,0001.78
2021-11-01 16:36:00,,0832.1,4.99,0.00,23.1,22.3,00.0,32.2,24.8,19.0,0000.0,0004.16,0001.90,0001.77
2021-11-01 16:37:00,,0832.1,5.00,0.00,23.1,22.2,00.0,32.2,24.8,19.1,0000.0,0004.17,0001.90,0001.76
2021-11-01 16:38:00,,0832.3,5.02,0.00,23.0,22.2,00.0,32.2,24.8,19.1,0000.0,0004.20,0001.91,0001.74
2021-11-01 16:39:00,,0832.5,5.00,0.00,23.0,22.1,00.0,32.1,24.8,19.2,0000.0,0004.18,0001.91,0001.73
2021-11-01 16:40:00,,0832.4,4.99,0.00,23.0,22.1,00.0,32.1,24.8,19.2,0000.0,0004.12,0001.91,0001.73
2021-11-01 16:41:00,,0832.4,5.01,0.00,23.0,22.1,00.0,32.1,24.8,19.3,0000.0,0004.12,0001.90,0001.71
2021-11-01 16:42:00,,0832.4,4.99,0.00,23.0,22.2,00.0,32.1,24.8,19.3,0000.0,0004.14,0001.89,0001.69
2021-11-01 16:43:00,,0832.5,4.99,0.00,23.0,22.2,00.0,32.1,24.8,19.4,0000.0,0003.19,0001.88,0001.67
2021-11-01 16:44:00,,0832.6,5.02,0.00,23.0,22.2,00.0,32.1,24.8,19.4,0000.0,0002.65,0001.84,0001.64
2021-11-01 16:45:00,,0832.6,5.00,0.00,23.0,22.2,00.0,32.1,24.8,19.4,0000.0,0002.17,0001.83,0001.62
2021-11-01 16:46:00,,0832.6,5.00,0.00,23.0,22.2,00.0,32.1,24.8,19.5,0000.0,0002.11,0001.84,0001.63
2021-11-01 16:47:00,,0832.7,4.99,0.00,23.0,22.2,00.0,32.1,24.8,19.5,0000.0,0002.14,0001.86,0001.66
2021-11-01 16:48:00,,0832.7,5.01,0.00,23.0,22.2,00.0,32.1,24.8,19.5,0000.0,0002.15,0001.89,0001.70
2021-11-01 16:49:00,,0832.6,4.99,0.00,23.0,22.2,00.0,32.1,24.8,19.5,0000.0,0002.17,0001.92,0001.75
2021-11-01 16:50:00,,0832.6,5.00,0.00,23.0,22.2,00.0,32.1,24.8,19.4,0000.0,0002.20,0001.96,0001.81
2021-11-01 16:51:00,,0832.5,5.00,0.00,23.0,22.2,00.0,32.1,24.8,19.4,0000.0,0002.27,0002.02,0001.87
2021-11-01 16:52:00,,0832.4,5.01,0.00,23.0,22.2,00.0,32.1,24.8,19.4,0000.0,0002.32,0002.06,0001.92
2021-11-01 16:53:00,,0832.3,5.00,0.00,23.0,22.2,00.0,32.0,24.8,19.5,0000.0,0002.41,0002.13,0001.98
2021-11-01 16:54:00,,0832.3,5.00,0.00,22.9,22.1,00.0,32.0,24.8,19.5,0000.0,0002.49,0002.21,0002.07
2021-11-01 16:55:00,,0832.3,5.01,0.00,22.9,22.1,00.0,32.0,24.7,19.5,0000.0,0002.58,0002.28,0002.14
2021-11-01 16:56:00,,0832.3,5.00,0.00,22.9,22.1,00.0,32.0,24.7,19.6,0000.0,0002.61,0002.33,0002.20
2021-11-01 16:57:00,,0832.5,4.98,0.00,22.9,22.1,00.0,32.0,24.7,19.6,0000.0,0002.58,0002.36,0002.26
2021-11-01 16:58:00,,0832.6,5.01,0.00,22.9,22.1,00.0,32.0,24.7,19.7,0000.0,0002.55,0002.37,0002.29
2021-11-01 16:59:00,,0832.7,5.00,0.00,22.9,22.1,00.0,32.0,24.7,19.7,0000.0,0002.56,0002.38,0002.30
